Regional Weather Roundup
Issued by NWS

Home | Current Version | Previous Version | Graphics & Text | Print | Product List | Glossary On
Versions: 1 2 3 4 5 6 7 8 9 10 11 12 13 14 15 16 17 18 19 20 21 22 23 24 25 26 27 28 29 30 31 32 33 34 35 36 37 38 39 40 41 42 43 44 45 46 47 48 49 50
000
ASUS43 KFSD 272102
RWRSD

WEATHER ROUNDUP FOR SOUTH DAKOTA
NATIONAL WEATHER SERVICE SIOUX FALLS SD
400 PM CDT FRI MAY 27 2016

NOTE: "FAIR" INDICATES FEW OR NO CLOUDS BELOW 12,000 FEET WITH NO
SIGNIFICANT WEATHER AND/OR OBSTRUCTIONS TO VISIBILITY.


SDZ001>005-009-010-012>017-272200-
NORTHWEST AND NORTH CENTRAL SOUTH DAKOTA

CITY           SKY/WX    TMP DP  RH WIND       PRES   REMARKS
BUFFALO          N/A     64  45  49 N5        29.78F
FAITH            N/A     63  46  54 SE12      29.82F
MOBRIDGE       CLOUDY    72  47  40 NW7       29.77F
$$

SDZ012>016-024>037-041>051-057-063-072>074-272200-
SOUTHWEST AND SOUTH CENTRAL SOUTH DAKOTA

CITY           SKY/WX    TMP DP  RH WIND       PRES   REMARKS
RAPID CTY ARPT CLOUDY    62  48  60 W6        29.84F
PIERRE         CLOUDY    70  51  51 NE6       29.78F
CUSTER         LGT RAIN  51  43  74 E10       29.90F
ELLSWORTH AFB  CLOUDY    66  44  44 N7        29.84F
PHILIP         CLOUDY    67  50  54 NE5       29.81F
PINE RIDGE     CLOUDY    60  47  61 CALM      29.86S
WINNER         FAIR      70  53  54 NE12      29.80F
$$

SDZ004>011-016>023-039-040-272200-
NORTHEAST SOUTH DAKOTA

CITY           SKY/WX    TMP DP  RH WIND       PRES   REMARKS
ABERDEEN       LGT RAIN  64  59  83 S7        29.79S
WATERTOWN      CLOUDY    63  58  83 NW8       29.79F
BROOKINGS      PTSUNNY   68  58  70 NW9       29.79S
SISSETON         N/A     70  54  56 S12       29.75F
$$

SDZ017-020-022-023-036>040-048>070-272200-
SOUTHEAST SOUTH DAKOTA

CITY           SKY/WX    TMP DP  RH WIND       PRES   REMARKS
SIOUX FALLS    PTSUNNY   73  57  57 MISG      29.75F
HURON          MOSUNNY   70  59  68 NE9       29.78S
MITCHELL       CLOUDY    70  59  68 N7        29.78F
YANKTON        MOSUNNY   73  59  60 NW8       29.73F
$$

ABBREVIATIONS USED IN REMARKS
   TC - TEMPERATURE IN CELSIUS
  WCI - WIND CHILL INDEX
   HX - HEAT INDEX
  VSB - VISIBILITY




USA.gov is the U.S. government's official web portal to all federal, state and local government web resources and services.